This is the latest recevied weather packets stored in our database for station/object YO8RBY-2. If no packets are shown the sender has not sent any weather packets the latest 10 day(s).
| Time | Temp. | Humidity | Pressure | Rain* | Wind** | Luminosity | Snow |
|---|---|---|---|---|---|---|---|
| 1788572860 | 21.11° C | 47% | 972 hPa | - | - | 0 W/m² | - |
| 1788571036 | 22.22° C | 44% | 972 hPa | - | - | 0 W/m² | - |
| 1788569212 | 21.67° C | 45% | 972 hPa | - | - | 0 W/m² | - |
| 1788561915 | 22.22° C | 42% | 973 hPa | - | - | 0 W/m² | - |
| 1788560091 | 24.44° C | 36% | 973 hPa | - | - | 0 W/m² | - |
| 1788556443 | 23.89° C | 37% | 973 hPa | - | - | 0 W/m² | - |
| 1788554619 | 24.44° C | 36% | 973 hPa | - | - | 0 W/m² | - |
| 1788552794 | 23.89° C | 36% | 973 hPa | - | - | 0 W/m² | - |
| 1788547322 | 23.89° C | 41% | 973 hPa | - | - | 0 W/m² | - |
| 1788545498 | 25.56° C | 37% | 973 hPa | - | - | 0 W/m² | - |
| 1788543674 | 26.11° C | 35% | 973 hPa | - | - | 0 W/m² | - |
| 1788541849 | 28.89° C | 30% | 973 hPa | - | - | 0 W/m² | - |
| 1788540025 | 29.44° C | 27% | 973 hPa | - | - | 0 W/m² | - |
| 1788538200 | 32.22° C | 24% | 972 hPa | - | - | 0 W/m² | - |
| 1788532728 | 37.78° C | 18% | 972 hPa | - | - | 0 W/m² | - |
| 1788530904 | 36.11° C | 20% | 972 hPa | - | - | 0 W/m² | - |
| 1788529080 | 34.44° C | 22% | 972 hPa | - | - | 0 W/m² | - |
| 1788527255 | 33.89° C | 22% | 972 hPa | - | - | 0 W/m² | - |
| 1788525431 | 33.33° C | 23% | 972 hPa | - | - | 0 W/m² | - |
| 1788521783 | 36.67° C | 19% | 973 hPa | - | - | 0 W/m² | - |
| 1788514486 | 32.78° C | 25% | 974 hPa | - | - | 0 W/m² | - |
| 1788512661 | 31.67° C | 28% | 974 hPa | - | - | 0 W/m² | - |
| 1788510836 | 29.44° C | 32% | 975 hPa | - | - | 0 W/m² | - |
| 1788509012 | 28.89° C | 32% | 975 hPa | - | - | 0 W/m² | - |
| 1788507159 | 26.11° C | 38% | 975 hPa | - | - | 0 W/m² | - |
* Rain since midnight (hover to see other rain measurements)
** Current wind speed in m/s (hover to see current wind gust speed)